Flag for Germany Weather past 2 weeks in Backnang, Baden-Württemberg, Germany

Now
53 °F

Overcast.


Feels Like: 53 °F
Forecast: 49 / 70 °F
Wind: 1 mph from West

Location: Oehringen

Current Time: Apr 26, 2015 at 5:02:05 AM

Latest Report: Apr 26, 2015 at 4:00 AM


Visibility: 6 mi

Pressure: 29.85 "Hg

Humidity: 97%

Dew point: 53 °F

Location of BacknangLocation

Historic Weather in Backnang — Graph

°F

Backnang temperature yesterday

Maximum temperature yesterday: 65 °F (at 3:00 PM)
Minimum temperature yesterday: 43 °F (at 6:00 AM)
Average temperature yesterday: 54 °F

Past Weeks' High & Low Weather Summary

 TemperatureHumidityPressure
High78 °F (Apr 15, 5:00 PM)97% (Apr 26, 1:00 AM)30.47 "Hg (Apr 26, 1:00 AM)
Low34 °F (Apr 23, 6:00 AM)19% (Apr 15, 7:00 PM)29.82 "Hg (Apr 25, 3:00 PM)
Average54 °F57%30.17 "Hg
* Reported Apr 11 4:00 AM — Apr 26 4:00 AM, Backnang, Weather by CustomWeather, © 2015

Note: Actual official high and low records may vary slightly from our data, if they occured in-between our weather recording intervals... More about our weather records

Advertising

Backnang weather history for previous 24 hours

 ConditionsComfort  
Time TempWeatherWind HumidityBarometerVisibility
4:00 AM
Sun, Apr 26
53 °FOvercast.1 mph97%29.85 "Hg6 mi
3:00 AM54 °FDrizzle. Overcast.1 mph95%29.86 "Hg9 mi
2:00 AM54 °FOvercast.2 mph95%29.87 "Hg7 mi
1:00 AM54 °FOvercast.2 mph97%29.87 "Hg2 mi
12:00 AM54 °FLight rain. Overcast.3 mph96%29.86 "Hg4 mi
11:00 PM
Sat, Apr 25
55 °FLight rain. Overcast.2 mph94%29.86 "Hg3 mi
10:00 PM55 °FOvercast.1 mph95%29.85 "Hg3 mi
9:00 PM56 °FOvercast.1 mph94%29.85 "Hg6 mi
8:00 PM56 °FLight rain. Overcast.1 mph91%29.84 "Hg7 mi
7:00 PM57 °FLight freezing rain. Overcast.1 mph89%29.85 "Hg6 mi
6:00 PM59 °FLight rain. Overcast.5 mph78%29.85 "Hg10 mi
5:00 PM61 °FLight rain. Overcast.5 mph66%29.84 "Hg16 mi
4:00 PM63 °FOvercast.7 mph64%29.83 "Hg19 mi
3:00 PM65 °FScattered clouds.5 mph54%29.82 "Hg28 mi
2:00 PM65 °FLight rain. Passing clouds.6 mph54%29.83 "Hg28 mi
1:00 PM64 °FOvercast.3 mph55%29.85 "Hg25 mi
12:00 PM59 °FLight rain. Partly sunny.2 mph59%29.88 "Hg22 mi
11:00 AM56 °FLight rain. Overcast.2 mph58%29.89 "Hg11 mi
10:00 AM54 °FOvercast.1 mph56%29.88 "Hg11 mi
9:00 AM49 °FOvercast.2 mph74%29.88 "Hg8 mi
8:00 AM46 °FOvercast.2 mph76%29.88 "Hg8 mi
7:00 AM44 °FOvercast.1 mph76%29.88 "Hg9 mi
6:00 AM43 °FOvercast.2 mph79%29.88 "Hg9 mi
5:00 AM43 °FClear.3 mph76%29.88 "Hg10 mi
Weather by CustomWeather, © 2015

See weather overviewHow to use our weather pages